Johnstown, PA

11:49 PM EST on February 12, 2016 (GMT -0500)
Johnstown-Cambria County

Weather History for KJST - April, 2013

Change the Weather History Date:

Friday, April 12, 2013

  Actual Average Record
Temperature  
Mean Temperature 51 °F 46 °F  
Max Temperature 64 °F 55 °F 85 °F (1930)
Min Temperature 39 °F 37 °F 14 °F (1959)
Degree Days  
Heating Degree Days 14 19  
Month to date heating degree days 255  
Since 1 July heating degree days 6047  
Cooling Degree Days 0 0  
Month to date cooling degree days 0  
Year to date cooling degree days 0  
Growing Degree Days 1 (Base 50)    
Moisture  
Dew Point 46 °F    
Average Humidity 79    
Maximum Humidity 100    
Minimum Humidity 51    
Precipitation  
Precipitation 0.54 in 0.12 in 2.00 in (1981)
Month to date precipitation 1.57  
Year to date precipitation 10.09  
Sea Level Pressure  
Sea Level Pressure 29.64 in    
Wind  
Wind Speed 14 mph (SW)    
Max Wind Speed 23 mph    
Max Gust Speed 36 mph    
Visibility 8 miles    
Events Rain    
T = Trace of Precipitation, MM = Missing Value Source: NWS Daily Summary

Daily Weather History Graph

Daily Weather History Graph

Search for Another Location

Airport or City:

Trip Planner

Search our weather history database for the weather conditions in past years. The results will help you decide how hot, cold, wet, or windy it might be!

Date:

Astronomy

Apr. 12, 2013 Rise Set
Actual Time 6:41 AM EDT 7:51 PM EDT
Civil Twilight 6:13 AM EDT 8:19 PM EDT
Nautical Twilight 5:39 AM EDT 8:53 PM EDT
Astronomical Twilight 5:04 AM EDT 9:28 PM EDT
Moon 7:49 AM EDT (4/12) 10:20 PM EDT (4/12)
Length of Visible Light 14h 06m
Length of Day
13h 10m
Waxing Crescent, 5% of the Moon is Illuminated
Apr 12
Waxing Crescent
Apr 18
First Quarter
Apr 25
Full
May 2
Last Quarter
May 9
New

Hourly Weather History & Observations

Time (EDT) Temp. Windchill Dew Point Humidity Pressure Visibility Wind Dir Wind Speed Gust Speed Precip Events Conditions
12:54 AM 52.0 °F - 50.0 °F 93% 29.69 in 4.0 mi ESE 13.8 mph 21.9 mph N/A   Overcast
1:54 AM 52.0 °F - 50.0 °F 93% 29.67 in 4.0 mi SE 12.7 mph 19.6 mph N/A   Overcast
2:54 AM 53.1 °F - 50.0 °F 89% 29.63 in 5.0 mi SE 11.5 mph 20.7 mph N/A   Overcast
3:54 AM 52.0 °F - 50.0 °F 93% 29.62 in 5.0 mi SE 12.7 mph 23.0 mph 0.00 in Rain Light Rain
4:17 AM 53.6 °F - 50.0 °F 88% 29.62 in 5.0 mi SE 11.5 mph 19.6 mph 0.03 in Rain Light Rain
4:54 AM 52.0 °F - 48.9 °F 89% 29.58 in 6.0 mi SE 12.7 mph - 0.05 in Rain Light Rain
5:54 AM 51.1 °F - 48.0 °F 89% 29.58 in 6.0 mi SE 10.4 mph - 0.10 in Rain Rain
6:04 AM 50.0 °F - 48.2 °F 94% 29.63 in 4.0 mi WSW 10.4 mph - 0.05 in Rain Rain
6:19 AM 50.0 °F - 48.2 °F 94% 29.61 in 4.0 mi SSE 9.2 mph - 0.09 in Rain Rain
6:42 AM 50.0 °F - 48.2 °F 94% 29.62 in 3.0 mi SSE 11.5 mph - 0.16 in Rain Heavy Rain
6:54 AM 50.0 °F - 48.0 °F 93% 29.61 in 3.0 mi SSE 12.7 mph - 0.21 in Rain Heavy Rain
7:14 AM 51.8 °F - 48.2 °F 88% 29.60 in 4.0 mi SSE 13.8 mph 19.6 mph 0.06 in Rain Rain
7:54 AM 51.1 °F - 48.9 °F 92% 29.59 in 7.0 mi SE 9.2 mph - 0.12 in Rain Light Rain
8:54 AM 50.0 °F - 48.0 °F 93% 29.59 in 7.0 mi SE 13.8 mph 20.7 mph 0.04 in Rain Light Rain
9:04 AM 51.8 °F - 48.2 °F 88% 29.59 in 10.0 mi SSE 11.5 mph - 0.00 in Rain Light Rain
9:54 AM 52.0 °F - 50.0 °F 93% 29.59 in 7.0 mi South 15.0 mph 21.9 mph 0.00 in Rain Light Rain
10:18 AM 51.8 °F - 51.8 °F 100% 29.60 in 10.0 mi South 16.1 mph - 0.00 in Rain Light Rain
10:54 AM 53.1 °F - 51.1 °F 93% 29.61 in 10.0 mi SSE 13.8 mph - 0.00 in   Overcast
11:27 AM 55.4 °F - 53.6 °F 94% 29.61 in 10.0 mi South 13.8 mph - 0.00 in   Overcast
11:54 AM 60.1 °F - 55.0 °F 83% 29.60 in 10.0 mi South 13.8 mph - 0.00 in   Scattered Clouds
12:54 PM 60.1 °F - 54.0 °F 80% 29.59 in 5.0 mi West 16.1 mph 27.6 mph 0.02 in Rain Light Rain
1:01 PM 59.0 °F - 55.4 °F 88% 29.60 in 10.0 mi West 13.8 mph 23.0 mph 0.00 in Rain Light Rain
1:54 PM 61.0 °F - 51.1 °F 70% 29.60 in 10.0 mi West 18.4 mph 33.4 mph 0.00 in   Mostly Cloudy
2:25 PM 59.0 °F - 50.0 °F 72% 29.62 in 10.0 mi West 18.4 mph 27.6 mph N/A   Mostly Cloudy
2:32 PM 60.8 °F - 51.8 °F 72% 29.62 in 10.0 mi West 16.1 mph 27.6 mph N/A   Scattered Clouds
2:39 PM 59.0 °F - 48.2 °F 67% 29.62 in 10.0 mi West 19.6 mph 26.5 mph N/A   Mostly Cloudy
2:49 PM 60.8 °F - 50.0 °F 68% 29.62 in 10.0 mi West 16.1 mph 23.0 mph N/A   Mostly Cloudy
2:54 PM 60.1 °F - 48.9 °F 67% 29.60 in 10.0 mi West 15.0 mph - N/A   Mostly Cloudy
3:06 PM 59.0 °F - 48.2 °F 67% 29.62 in 10.0 mi WSW 13.8 mph 25.3 mph N/A   Mostly Cloudy
3:22 PM 59.0 °F - 46.4 °F 63% 29.62 in 10.0 mi WSW 19.6 mph 26.5 mph N/A   Overcast
3:54 PM 60.1 °F - 46.0 °F 60% 29.61 in 10.0 mi WSW 18.4 mph 28.8 mph N/A   Mostly Cloudy
4:54 PM 60.1 °F - 42.1 °F 51% 29.61 in 10.0 mi WSW 15.0 mph 23.0 mph N/A   Mostly Cloudy
5:54 PM 57.9 °F - 39.9 °F 51% 29.64 in 10.0 mi West 17.3 mph 24.2 mph N/A   Overcast
6:54 PM 55.9 °F - 41.0 °F 57% 29.68 in 10.0 mi West 17.3 mph 26.5 mph N/A   Overcast
7:54 PM 50.0 °F - 37.9 °F 63% 29.73 in 10.0 mi WNW 23.0 mph 35.7 mph N/A   Scattered Clouds
8:18 PM 46.4 °F 39.0 °F 37.4 °F 71% 29.75 in 10.0 mi WNW 19.6 mph 27.6 mph N/A   Mostly Cloudy
8:54 PM 43.0 °F 34.8 °F 33.1 °F 68% 29.81 in 10.0 mi WNW 18.4 mph 28.8 mph N/A   Overcast
9:14 PM 42.8 °F 36.2 °F 30.2 °F 61% 29.79 in 10.0 mi WNW 12.7 mph 24.2 mph N/A   Overcast
9:54 PM 41.0 °F 33.5 °F 30.0 °F 65% 29.83 in 10.0 mi WNW 13.8 mph 23.0 mph N/A   Overcast
10:54 PM 41.0 °F 35.2 °F 30.0 °F 65% 29.83 in 10.0 mi West 9.2 mph - N/A   Overcast
11:54 PM 39.9 °F 31.4 °F 30.9 °F 70% 29.80 in 10.0 mi WNW 16.1 mph - N/A   Overcast